IW1CGW-13 Weather Reports


Display with metric or nautical units.
time (UTC)temp
F
wind
direction
speed
MPH
gust
MPH
rain 1hr
in
rain 24hr
in
rain mn
in
humidity
%
barometer
mb
20260508003105 51 0.0 0.0 0.00 0.00 0.00 83 1014.0
20260508000001 51 0.0 0.0 0.00 0.00 0.00 83 1014.1
20260507234940 51 0.0 0.0 0.00 0.00 0.00 83 1014.2
20260507233922 51 0.0 0.0 0.00 0.00 0.00 83 1014.2
20260507231840 51 0.0 0.0 0.00 0.00 0.00 83 1014.3
20260507230820 51 0.0 0.0 0.00 0.00 0.00 83 1014.4
20260507225758 51 0.0 0.0 0.00 0.00 0.00 83 1014.4
20260507224737 51 0.0 0.0 0.00 0.00 0.00 83 1014.4
20260507223714 51 0.0 0.0 0.00 0.00 0.00 83 1014.3
20260507222651 51 0.0 0.0 0.00 0.00 0.00 83 1014.3
20260507221617 51 0.0 0.0 0.00 0.00 0.00 83 1014.2
20260507220556 51 0.0 0.0 0.00 0.00 0.00 82 1014.3
20260507215536 51 0.0 0.0 0.00 0.00 0.00 83 1014.1
20260507214515 51 0.0 0.0 0.00 0.00 0.00 83 1014.0
20260507213454 50 0.0 0.0 0.00 0.00 0.00 83 1013.9
20260507212431 51 0.0 0.0 0.00 0.00 0.00 82 1013.8
20260507211410 51 0.0 0.0 0.00 0.00 0.00 82 1013.8
20260507210349 52 0.0 0.0 0.00 0.00 0.00 82 1013.7
20260507205329 52 0.0 0.0 0.00 0.00 0.00 82 1013.7
20260507203247 53 0.0 0.0 0.00 0.00 0.00 82 1013.6
20260507202226 53 0.0 0.0 0.00 0.00 0.00 82 1013.5
20260507201202 53 0.0 0.0 0.00 0.00 0.00 82 1013.3
20260507200139 54 0.0 0.0 0.00 0.00 0.00 82 1013.2
20260507195116 54 0.0 0.0 0.00 0.00 0.00 82 1013.0
20260507194055 54 0.0 0.0 0.00 0.00 0.00 82 1012.9
20260507193035 54 0.0 0.0 0.00 0.00 0.00 82 1012.7
20260507192014 54 0.0 0.0 0.00 0.00 0.00 82 1012.6
20260507190953 54 0.0 0.0 0.00 0.00 0.00 82 1012.5
20260507185928 55 0.0 0.0 0.00 0.00 0.00 82 1012.4
20260507184907 55 0.0 0.0 0.00 0.00 0.00 82 1012.3
20260507183847 55 0.0 0.0 0.00 0.00 0.00 81 1012.4
20260507182826 56 0.0 0.0 0.00 0.00 0.00 81 1012.2
20260507181805 57 0.0 0.0 0.00 0.00 0.00 81 1012.1
20260507180743 58 0.0 0.0 0.00 0.00 0.00 81 1012.1
20260507175722 58 0.0 0.0 0.00 0.00 0.00 81 1012.0
20260507174700 59 0.0 0.0 0.00 0.00 0.00 81 1011.9
20260507173636 59 0.0 0.0 0.00 0.00 0.00 81 1011.9
20260507172616 59 0.0 0.0 0.00 0.00 0.00 80 1011.9
20260507171622 60 0.0 0.0 0.00 0.00 0.00 80 1011.8
20260507171549 60 0.0 0.0 0.00 0.00 0.00 80 1011.8
20260507170527 61 0.0 0.0 0.00 0.00 0.00 80 1011.8
20260507165506 62 0.0 0.0 0.00 0.00 0.00 79 1011.9
20260507164445 63 0.0 0.0 0.00 0.00 0.00 81 1011.7
20260507163420 62 0.0 0.0 0.00 0.00 0.00 80 1011.7
20260507162400 62 0.0 0.0 0.00 0.00 0.00 80 1011.7
20260507161339 61 0.0 0.0 0.00 0.00 0.00 80 1011.7
20260507160318 62 0.0 0.0 0.00 0.00 0.00 80 1011.7
20260507155257 61 0.0 0.0 0.00 0.00 0.00 80 1011.6
20260507154237 62 0.0 0.0 0.00 0.00 0.00 80 1011.6
20260507153216 63 0.0 0.0 0.00 0.00 0.00 79 1011.5
20260507152158 67 0.0 0.0 0.00 0.00 0.00 78 1011.5
20260507150113 64 0.0 0.0 0.00 0.00 0.00 81 1011.7
20260507145045 64 0.0 0.0 0.00 0.00 0.00 79 1011.7
20260507144022 66 0.0 0.0 0.00 0.00 0.00 79 1011.8
20260507142957 65 0.0 0.0 0.00 0.00 0.00 82 1011.8
20260507141936 63 0.0 0.0 0.00 0.00 0.00 79 1012.0
20260507135851 63 0.0 0.0 0.00 0.00 0.00 79 1012.1
20260507134830 66 0.0 0.0 0.00 0.00 0.00 78 1012.1
20260507133810 70 0.0 0.0 0.00 0.00 0.00 77 1012.3
20260507132749 66 0.0 0.0 0.00 0.00 0.00 83 1012.5
20260507131728 64 0.0 0.0 0.00 0.00 0.00 80 1012.6
20260507130707 63 0.0 0.0 0.00 0.00 0.00 81 1012.6
20260507125644 62 0.0 0.0 0.00 0.00 0.00 82 1012.6
20260507124623 61 0.0 0.0 0.00 0.00 0.00 82 1012.6
20260507123600 61 0.0 0.0 0.00 0.00 0.00 80 1012.7
20260507122538 63 0.0 0.0 0.00 0.00 0.00 81 1012.8
20260507121517 62 0.0 0.0 0.00 0.00 0.00 80 1012.7
20260507120454 61 0.0 0.0 0.00 0.00 0.00 83 1012.7
20260507115434 60 0.0 0.0 0.00 0.00 0.00 81 1012.7
20260507114413 62 0.0 0.0 0.00 0.00 0.00 82 1012.9
20260507113352 60 0.0 0.0 0.00 0.00 0.00 81 1013.0
20260507112331 59 0.0 0.0 0.00 0.00 0.00 82 1013.2
20260507111311 59 0.0 0.0 0.00 0.00 0.00 81 1013.2
20260507110250 58 0.0 0.0 0.00 0.00 0.00 83 1013.3
20260507104208 57 0.0 0.0 0.00 0.00 0.00 82 1013.6
20260507103148 57 0.0 0.0 0.00 0.00 0.00 82 1013.6
20260507102125 57 0.0 0.0 0.00 0.00 0.00 82 1013.6
20260507101104 57 0.0 0.0 0.00 0.00 0.00 81 1013.6
20260507100042 57 0.0 0.0 0.00 0.00 0.00 80 1013.7
20260507095021 56 0.0 0.0 0.00 0.00 0.00 82 1013.5
20260507094000 57 0.0 0.0 0.00 0.00 0.00 81 1013.6
20260507092936 58 0.0 0.0 0.00 0.00 0.00 83 1013.4
20260507091915 56 0.0 0.0 0.00 0.00 0.00 84 1013.4
20260507090853 54 0.0 0.0 0.00 0.00 0.00 84 1013.5
20260507085832 53 0.0 0.0 0.00 0.00 0.00 85 1013.3
20260507084811 52 0.0 0.0 0.00 0.00 0.00 84 1013.3
20260507083750 52 0.0 0.0 0.00 0.00 0.00 85 1013.2
20260507082729 52 0.0 0.0 0.00 0.00 0.00 84 1013.2
20260507081706 53 0.0 0.0 0.00 0.00 0.00 83 1013.1
20260507080509 54 0.0 0.0 0.00 0.00 0.00 84 1013.1
20260507075449 53 0.0 0.0 0.00 0.00 0.00 85 1013.0
20260507074428 51 0.0 0.0 0.00 0.00 0.00 85 1013.0
20260507073407 51 0.0 0.0 0.00 0.00 0.00 84 1013.0
20260507072345 51 0.0 0.0 0.00 0.00 0.00 84 1012.9
20260507071324 51 0.0 0.0 0.00 0.00 0.00 85 1012.8
20260507070302 51 0.0 0.0 0.00 0.00 0.00 84 1012.9
20260507065242 51 0.0 0.0 0.00 0.00 0.00 84 1012.7
20260507064221 51 0.0 0.0 0.00 0.00 0.00 85 1012.6
20260507063156 51 0.0 0.0 0.00 0.00 0.00 85 1012.7
20260507061114 50 0.0 0.0 0.00 0.00 0.00 85 1012.5
20260507060053 50 0.0 0.0 0.00 0.00 0.00 85 1012.4
20260507055032 50 0.0 0.0 0.00 0.00 0.00 85 1012.3
20260507054011 49 0.0 0.0 0.00 0.00 0.00 86 1012.2
20260507052951 49 0.0 0.0 0.00 0.00 0.00 85 1012.0
20260507051919 49 0.0 0.0 0.00 0.00 0.00 85 1011.9
20260507050859 49 0.0 0.0 0.00 0.00 0.00 85 1011.7
20260507045838 49 0.0 0.0 0.00 0.00 0.00 85 1011.6
20260507044817 49 0.0 0.0 0.00 0.00 0.00 85 1011.5
20260507043756 49 0.0 0.0 0.00 0.00 0.00 85 1011.5
20260507042735 49 0.0 0.0 0.00 0.00 0.00 85 1011.4
20260507041715 49 0.0 0.0 0.00 0.00 0.00 85 1011.4
20260507040651 49 0.0 0.0 0.00 0.00 0.00 85 1011.3
20260507035630 49 0.0 0.0 0.00 0.00 0.00 85 1011.3
20260507034609 48 0.0 0.0 0.00 0.00 0.00 85 1011.3
20260507033548 48 0.0 0.0 0.00 0.00 0.00 84 1011.2
20260507032513 48 0.0 0.0 0.00 0.00 0.00 84 1011.1
20260507031452 48 0.0 0.0 0.00 0.00 0.00 84 1011.0
20260507030432 49 0.0 0.0 0.00 0.00 0.00 84 1011.0
20260507025411 49 0.0 0.0 0.00 0.00 0.00 84 1011.1
20260507024350 49 0.0 0.0 0.00 0.00 0.00 84 1010.9
20260507023326 49 0.0 0.0 0.00 0.00 0.00 84 1010.9
20260507022306 49 0.0 0.0 0.00 0.00 0.00 84 1010.9
20260507021245 49 0.0 0.0 0.00 0.00 0.00 84 1010.9
20260507020224 49 0.0 0.0 0.00 0.00 0.00 84 1010.9
20260507015203 49 0.0 0.0 0.00 0.00 0.00 84 1010.9
20260507013120 49 0.0 0.0 0.00 0.00 0.00 84 1010.7
20260507012059 49 0.0 0.0 0.00 0.00 0.00 84 1010.7
20260507011038 49 0.0 0.0 0.00 0.00 0.00 83 1010.8
20260507010013 49 0.0 0.0 0.00 0.00 0.00 84 1010.8
20260507004952 50 0.0 0.0 0.00 0.00 0.00 83 1010.8
20260507003931 50 0.0 0.0 0.00 0.00 0.00 83 1010.8